EW8146 Weather Reports


time (UTC)temp
C
wind
direction
speed
KPH
gust
KPH
rain 1hr
cm
rain 24hr
cm
rain mn
cm
humidity
%
barometer
mb
20260503030055 21 286 0.0 0.0 0.00 0.00 0.00 32 1009.1
20260503024556 22 286 0.0 0.0 0.00 0.00 0.00 29 1009.0
20260503023057 22 286 0.0 1.6 0.00 0.00 0.00 28 1009.0
20260503021554 23 286 0.0 1.6 0.00 0.00 0.00 25 1009.0
20260503020053 23 283 0.0 1.6 0.00 0.00 0.00 24 1009.0
20260503014558 23 267 0.0 3.2 0.00 0.00 0.00 23 1008.9
20260503013050 24 291 0.0 8.0 0.00 0.00 0.00 23 1009.2
20260503011550 25 285 0.0 4.8 0.00 0.00 0.00 21 1009.2
20260503010047 25 286 0.0 0.0 0.00 0.00 0.00 16 1009.3
20260503004548 26 288 0.0 4.8 0.00 0.00 0.00 16 1009.3
20260503003045 26 284 0.0 1.6 0.00 0.00 0.00 14 1009.3
20260503001544 26 284 0.0 1.6 0.00 0.00 0.00 14 1009.4
20260503000046 27 122 0.0 0.0 0.00 0.00 0.00 15 1009.4
20260502234551 26 122 0.0 0.0 0.00 0.00 0.00 16 1009.4
20260502233040 26 110 0.0 0.0 0.00 0.00 0.00 13 1009.6
20260502231540 27 271 0.0 8.0 0.00 0.00 0.00 13 1009.8
20260502230036 28 139 0.0 0.0 0.00 0.00 0.00 14 1010.0
20260502224535 27 98 0.0 0.0 0.00 0.00 0.00 16 1010.1
20260502223034 27 85 0.0 3.2 0.00 0.00 0.00 15 1010.3
20260502221531 27 82 0.0 9.7 0.00 0.00 0.00 16 1010.4
20260502220030 28 101 0.0 0.0 0.00 0.00 0.00 16 1010.6
20260502214538 28 122 0.0 6.4 0.00 0.00 0.00 15 1010.9
20260502213025 28 64 0.0 1.6 0.00 0.00 0.00 17 1011.1
20260502211532 28 129 0.0 3.2 0.00 0.00 0.00 15 1011.3
20260502210025 28 148 0.0 3.2 0.00 0.00 0.00 18 1011.4
20260502204519 27 162 0.0 3.2 0.00 0.00 0.00 17 1011.6
20260502203016 27 102 0.0 3.2 0.00 0.00 0.00 18 1011.7
20260502201514 27 130 0.0 4.8 0.00 0.00 0.00 20 1012.0
20260502200011 27 126 0.0 3.2 0.00 0.00 0.00 21 1012.2
20260502194507 26 98 0.0 1.6 0.00 0.00 0.00 20 1012.4
20260502193005 25 269 0.0 1.6 0.00 0.00 0.00 24 1012.5
20260502191501 25 138 0.0 1.6 0.00 0.00 0.00 27 1012.8
20260502190100 25 322 0.0 0.0 0.00 0.00 0.00 31 1013.0
20260502184603 24 127 0.0 3.2 0.00 0.00 0.00 29 1013.4
20260502183054 23 128 0.0 0.0 0.00 0.00 0.00 33 1013.6
20260502181550 23 124 0.0 0.0 0.00 0.00 0.00 32 1013.9
20260502163028 17 253 0.0 3.2 0.00 0.00 0.00 39 1014.9
20260502161522 16 129 0.0 0.0 0.00 0.00 0.00 41 1015.0
20260502151511 13 304 0.0 1.6 0.00 0.00 0.00 50 1014.8
20260502123056 9 77 0.0 1.6 0.00 0.00 0.00 58 1014.2
20260502121556 10 75 0.0 1.6 0.00 0.00 0.00 57 1014.1
20260502114555 10 133 0.0 1.6 0.00 0.00 0.00 56 1014.1
20260502113052 10 88 0.0 0.0 0.00 0.00 0.00 56 1014.2
20260502111604 9 127 0.0 0.0 0.00 0.00 0.00 59 1014.3
20260502110051 8 106 0.0 0.0 0.00 0.00 0.00 59 1014.4
20260502104548 8 94 0.0 0.0 0.00 0.00 0.00 60 1014.4
20260502103102 8 133 0.0 0.0 0.00 0.00 0.00 61 1014.5
20260502101649 8 139 0.0 0.0 0.00 0.00 0.00 59 1014.4
20260502071533 7 164 0.0 0.0 0.00 0.00 0.00 65 1014.5
20260502070031 8 136 0.0 0.0 0.00 0.00 0.00 63 1014.5
20260502064528 10 140 0.0 0.0 0.00 0.00 0.00 56 1014.5
20260502063028 11 124 0.0 0.0 0.00 0.00 0.00 51 1014.4
20260502061521 11 135 0.0 1.6 0.00 0.00 0.00 50 1014.4
20260502060021 11 135 0.0 3.2 0.00 0.00 0.00 50 1014.3
20260502054530 11 133 0.0 1.6 0.00 0.00 0.00 49 1014.4
20260502053019 12 127 0.0 0.0 0.00 0.00 0.00 49 1014.5
20260502051519 12 118 0.0 0.0 0.00 0.00 0.00 47 1014.4
20260502050018 12 118 0.0 0.0 0.00 0.00 0.00 46 1014.5
20260502044518 12 118 0.0 0.0 0.00 0.00 0.00 46 1014.4
20260502043017 12 118 0.0 0.0 0.00 0.00 0.00 47 1014.5
20260502041517 12 118 0.0 0.0 0.00 0.00 0.00 45 1014.5
20260502040016 12 118 0.0 0.0 0.00 0.00 0.00 42 1014.3
20260502034515 13 118 0.0 0.0 0.00 0.00 0.00 39 1014.1
20260502033014 15 118 0.0 0.0 0.00 0.00 0.00 36 1014.0
20260502031516 15 118 0.0 0.0 0.00 0.00 0.00 31 1013.8